Time,TemperatureF,DewpointF,PressureIn,WindDirection,WindDirectionDegrees,WindSpeedMPH,WindSpeedGustMPH,Humidity,HourlyPrecipIn,Conditions,Clouds,dailyrainin,SoftwareType,DateUTC
2013-06-28 00:09:00,69.3,69.0,29.53,SSW,202,0.0,-999.0,99,-99.99,,,0.00,Acu-Link.com,2013-06-28 04:09:00,
2013-06-28 00:24:00,69.3,69.0,29.52,SW,225,0.0,-999.0,99,-99.99,,,0.00,Acu-Link.com,2013-06-28 04:24:00,
2013-06-28 00:40:00,69.3,69.0,29.52,SSW,202,0.0,-999.0,99,-99.99,,,0.00,Acu-Link.com,2013-06-28 04:40:00,
2013-06-28 00:55:00,69.3,69.0,29.52,East,90,0.0,-999.0,99,-99.99,,,0.00,Acu-Link.com,2013-06-28 04:55:00,
2013-06-28 01:10:00,69.3,69.0,29.51,NE,45,0.0,-999.0,99,-99.99,,,0.00,Acu-Link.com,2013-06-28 05:10:00,
2013-06-28 01:25:00,68.9,68.6,29.50,South,180,1.7,-999.0,99,-99.99,,,0.00,Acu-Link.com,2013-06-28 05:25:00,
2013-06-28 01:41:00,68.9,68.6,29.50,ESE,112,0.0,-999.0,99,-99.99,,,0.00,Acu-Link.com,2013-06-28 05:41:00,
2013-06-28 01:56:00,68.9,68.3,29.50,NE,45,0.0,-999.0,98,-99.99,,,0.00,Acu-Link.com,2013-06-28 05:56:00,
2013-06-28 02:11:00,68.9,68.0,29.50,ESE,112,0.0,-999.0,97,-99.99,,,0.00,Acu-Link.com,2013-06-28 06:11:00,
2013-06-28 02:27:00,68.5,68.2,29.49,SSW,202,0.0,-999.0,99,-99.99,,,0.00,Acu-Link.com,2013-06-28 06:27:00,
2013-06-28 02:42:00,67.8,67.5,29.49,NE,45,0.0,-999.0,99,-99.99,,,0.00,Acu-Link.com,2013-06-28 06:42:00,
2013-06-28 02:57:00,67.8,67.5,29.49,SSW,202,0.0,-999.0,99,-99.99,,,0.00,Acu-Link.com,2013-06-28 06:57:00,
2013-06-28 03:13:00,67.3,67.0,29.49,NW,315,0.0,-999.0,99,-99.99,,,0.00,Acu-Link.com,2013-06-28 07:13:00,
2013-06-28 03:28:00,67.3,67.0,29.48,SW,225,0.0,-999.0,99,-99.99,,,0.00,Acu-Link.com,2013-06-28 07:28:00,
2013-06-28 03:43:00,67.1,66.8,29.48,ENE,67,0.0,-999.0,99,-99.99,,,0.00,Acu-Link.com,2013-06-28 07:43:00,
2013-06-28 03:58:00,66.9,66.6,29.48,SSE,157,0.0,-999.0,99,-99.99,,,0.00,Acu-Link.com,2013-06-28 07:58:00,
2013-06-28 04:15:00,66.9,66.6,29.48,SSE,157,0.0,-999.0,99,-99.99,,,0.00,Acu-Link.com,2013-06-28 08:15:00,
2013-06-28 04:30:00,66.9,66.6,29.48,South,180,0.0,-999.0,99,-99.99,,,0.00,Acu-Link.com,2013-06-28 08:30:00,
2013-06-28 04:45:00,66.9,66.6,29.47,SSE,157,0.0,-999.0,99,-99.99,,,0.00,Acu-Link.com,2013-06-28 08:45:00,
2013-06-28 05:00:00,66.9,66.6,29.47,West,270,0.0,-999.0,99,-99.99,,,0.00,Acu-Link.com,2013-06-28 09:00:00,
2013-06-28 05:15:00,66.7,66.4,29.47,WSW,247,0.0,-999.0,99,-99.99,,,0.00,Acu-Link.com,2013-06-28 09:15:00,
2013-06-28 05:31:00,67.1,66.5,29.47,NNE,22,0.0,-999.0,98,-99.99,,,0.00,Acu-Link.com,2013-06-28 09:31:00,
2013-06-28 05:46:00,67.3,66.7,29.48,SW,225,0.0,-999.0,98,-99.99,,,0.00,Acu-Link.com,2013-06-28 09:46:00,
2013-06-28 06:01:00,67.1,66.8,29.48,ESE,112,0.0,-999.0,99,-99.99,,,0.00,Acu-Link.com,2013-06-28 10:01:00,
2013-06-28 06:16:00,67.1,66.5,29.48,ESE,112,0.0,-999.0,98,-99.99,,,0.00,Acu-Link.com,2013-06-28 10:16:00,
2013-06-28 06:31:00,66.9,66.3,29.48,East,90,1.1,-999.0,98,-99.99,,,0.00,Acu-Link.com,2013-06-28 10:31:00,
2013-06-28 06:47:00,66.7,66.4,29.48,SSW,202,0.0,-999.0,99,-99.99,,,0.00,Acu-Link.com,2013-06-28 10:47:00,
2013-06-28 07:02:00,67.1,66.8,29.47,SSE,157,0.0,-999.0,99,-99.99,,,0.00,Acu-Link.com,2013-06-28 11:02:00,
2013-06-28 07:17:00,67.8,66.9,29.47,WNW,292,0.0,-999.0,97,-99.99,,,0.00,Acu-Link.com,2013-06-28 11:17:00,
2013-06-28 07:33:00,68.2,66.7,29.47,NW,315,1.1,-999.0,95,-99.99,,,0.00,Acu-Link.com,2013-06-28 11:33:00,
2013-06-28 07:48:00,69.3,66.9,29.46,West,270,2.7,-999.0,92,-99.99,,,0.00,Acu-Link.com,2013-06-28 11:48:00,
2013-06-28 08:03:00,69.8,66.4,29.47,WSW,247,4.2,-999.0,89,-99.99,,,0.00,Acu-Link.com,2013-06-28 12:03:00,
2013-06-28 08:19:00,70.3,67.2,29.46,SW,225,3.7,-999.0,90,-99.99,,,0.00,Acu-Link.com,2013-06-28 12:19:00,
2013-06-28 08:34:00,71.4,67.0,29.46,North,0,2.7,-999.0,86,-99.99,,,0.00,Acu-Link.com,2013-06-28 12:34:00,
2013-06-28 08:49:00,72.1,67.0,29.47,West,270,2.7,-999.0,84,-99.99,,,0.00,Acu-Link.com,2013-06-28 12:49:00,
2013-06-28 09:04:00,72.3,67.5,29.47,West,270,1.1,-999.0,85,-99.99,,,0.00,Acu-Link.com,2013-06-28 13:04:00,
2013-06-28 09:19:00,72.9,68.5,29.48,NW,315,0.0,-999.0,86,-99.99,,,0.00,Acu-Link.com,2013-06-28 13:19:00,
2013-06-28 09:34:00,73.0,67.5,29.48,West,270,2.7,-999.0,83,-99.99,,,0.00,Acu-Link.com,2013-06-28 13:34:00,
2013-06-28 09:50:00,74.3,67.7,29.47,WNW,292,0.0,-999.0,80,-99.99,,,0.00,Acu-Link.com,2013-06-28 13:50:00,
2013-06-28 10:05:00,75.9,66.6,29.46,NW,315,2.7,-999.0,73,-99.99,,,0.00,Acu-Link.com,2013-06-28 14:05:00,
2013-06-28 10:20:00,76.3,67.8,29.46,WSW,247,2.2,-999.0,75,-99.99,,,0.00,Acu-Link.com,2013-06-28 14:20:00,
2013-06-28 10:36:00,76.3,67.8,29.46,SSW,202,2.2,-999.0,75,-99.99,,,0.00,Acu-Link.com,2013-06-28 14:36:00,
2013-06-28 10:51:00,77.0,67.3,29.46,SW,225,2.2,-999.0,72,-99.99,,,0.00,Acu-Link.com,2013-06-28 14:51:00,
2013-06-28 11:06:00,78.8,68.2,29.46,SW,225,0.0,-999.0,70,-99.99,,,0.00,Acu-Link.com,2013-06-28 15:06:00,
2013-06-28 11:22:00,79.7,67.8,29.46,WNW,292,0.0,-999.0,67,-99.99,,,0.00,Acu-Link.com,2013-06-28 15:22:00,
2013-06-28 11:37:00,80.4,70.5,29.46,South,180,3.2,-999.0,72,-99.99,,,0.00,Acu-Link.com,2013-06-28 15:37:00,
2013-06-28 11:52:00,79.9,71.6,29.46,SSW,202,3.2,-999.0,76,-99.99,,,0.00,Acu-Link.com,2013-06-28 15:52:00,
2013-06-28 12:07:00,79.9,70.0,29.46,SSW,202,3.7,-999.0,72,-99.99,,,0.00,Acu-Link.com,2013-06-28 16:07:00,
2013-06-28 12:22:00,80.4,70.5,29.45,SSW,202,3.7,-999.0,72,-99.99,,,0.00,Acu-Link.com,2013-06-28 16:22:00,
2013-06-28 12:38:00,81.3,71.0,29.45,SSW,202,2.7,-999.0,71,-99.99,,,0.00,Acu-Link.com,2013-06-28 16:38:00,
2013-06-28 12:53:00,80.8,70.1,29.45,SSW,202,2.7,-999.0,70,-99.99,,,0.00,Acu-Link.com,2013-06-28 16:53:00,
2013-06-28 13:08:00,81.5,70.7,29.44,SSW,202,2.2,-999.0,70,-99.99,,,0.00,Acu-Link.com,2013-06-28 17:08:00,
2013-06-28 13:23:00,82.6,71.4,29.44,SW,225,1.1,-999.0,69,-99.99,,,0.00,Acu-Link.com,2013-06-28 17:23:00,
2013-06-28 13:39:00,83.1,71.4,29.43,SSW,202,2.2,-999.0,68,-99.99,,,0.00,Acu-Link.com,2013-06-28 17:39:00,
2013-06-28 13:54:00,83.8,71.6,29.43,SW,225,1.7,-999.0,67,-99.99,,,0.00,Acu-Link.com,2013-06-28 17:54:00,
2013-06-28 14:09:00,82.2,69.2,29.42,WNW,292,1.7,-999.0,65,-99.99,,,0.00,Acu-Link.com,2013-06-28 18:09:00,
2013-06-28 14:24:00,84.0,67.6,29.42,West,270,2.7,-999.0,58,-99.99,,,0.00,Acu-Link.com,2013-06-28 18:24:00,
2013-06-28 14:39:00,84.4,64.8,29.40,NW,315,2.2,-999.0,52,-99.99,,,0.00,Acu-Link.com,2013-06-28 18:39:00,
2013-06-28 14:54:00,85.3,63.9,29.39,WSW,247,2.7,-999.0,49,-99.99,,,0.00,Acu-Link.com,2013-06-28 18:54:00,
2013-06-28 15:10:00,85.1,65.5,29.38,SSW,202,3.2,-999.0,52,-99.99,,,0.00,Acu-Link.com,2013-06-28 19:10:00,
2013-06-28 15:25:00,85.3,64.5,29.38,WNW,292,0.0,-999.0,50,-99.99,,,0.00,Acu-Link.com,2013-06-28 19:25:00,
2013-06-28 15:40:00,85.8,66.7,29.38,NNW,337,0.0,-999.0,53,-99.99,,,0.00,Acu-Link.com,2013-06-28 19:40:00,
2013-06-28 15:55:00,85.5,65.8,29.37,North,0,0.0,-999.0,52,-99.99,,,0.00,Acu-Link.com,2013-06-28 19:55:00,
2013-06-28 16:11:00,84.6,66.1,29.37,West,270,0.0,-999.0,54,-99.99,,,0.00,Acu-Link.com,2013-06-28 20:11:00,
2013-06-28 16:26:00,83.8,67.4,29.37,SSW,202,3.2,-999.0,58,-99.99,,,0.00,Acu-Link.com,2013-06-28 20:26:00,
2013-06-28 16:42:00,85.1,67.1,29.37,SSW,202,3.7,-999.0,55,-99.99,,,0.00,Acu-Link.com,2013-06-28 20:42:00,
2013-06-28 16:57:00,84.2,65.7,29.37,SW,225,2.2,-999.0,54,-99.99,,,0.00,Acu-Link.com,2013-06-28 20:57:00,
2013-06-28 17:12:00,84.7,68.3,29.37,SW,225,2.7,-999.0,58,-99.99,,,0.00,Acu-Link.com,2013-06-28 21:12:00,
2013-06-28 17:27:00,83.3,68.4,29.37,WSW,247,2.2,-999.0,61,-99.99,,,0.00,Acu-Link.com,2013-06-28 21:27:00,
2013-06-28 17:42:00,81.9,69.8,29.37,SSW,202,1.7,-999.0,67,-99.99,,,0.00,Acu-Link.com,2013-06-28 21:42:00,
2013-06-28 17:57:00,81.1,70.8,29.36,SW,225,0.0,-999.0,71,-99.99,,,0.00,Acu-Link.com,2013-06-28 21:57:00,
2013-06-28 18:13:00,79.9,72.0,29.35,SW,225,1.7,-999.0,77,-99.99,,,0.00,Acu-Link.com,2013-06-28 22:13:00,
2013-06-28 18:28:00,79.3,71.4,29.35,NNW,337,0.0,-999.0,77,-99.99,,,0.00,Acu-Link.com,2013-06-28 22:28:00,
2013-06-28 18:43:00,79.2,71.3,29.35,SW,225,0.0,-999.0,77,-99.99,,,0.00,Acu-Link.com,2013-06-28 22:43:00,
2013-06-28 18:58:00,79.2,71.7,29.34,SSW,202,2.7,-999.0,78,-99.99,,,0.00,Acu-Link.com,2013-06-28 22:58:00,
2013-06-28 19:14:00,78.8,69.8,29.35,SW,225,3.2,-999.0,74,-99.99,,,0.00,Acu-Link.com,2013-06-28 23:14:00,
2013-06-28 19:29:00,78.4,70.6,29.36,WSW,247,2.2,-999.0,77,-99.99,,,0.00,Acu-Link.com,2013-06-28 23:29:00,
2013-06-28 19:44:00,76.6,68.8,29.37,West,270,1.7,-999.0,77,-99.99,,,0.00,Acu-Link.com,2013-06-28 23:44:00,
2013-06-28 19:59:00,74.5,67.9,29.37,NW,315,2.2,-999.0,80,-99.99,,,0.00,Acu-Link.com,2013-06-28 23:59:00,
2013-06-28 20:14:00,75.0,66.9,29.37,SW,225,2.2,-999.0,76,-99.99,,,0.00,Acu-Link.com,2013-06-29 00:14:00,
2013-06-28 20:30:00,74.7,66.6,29.37,NNW,337,3.2,-999.0,76,-99.99,,,0.00,Acu-Link.com,2013-06-29 00:30:00,
2013-06-28 20:45:00,73.4,66.8,29.38,West,270,2.2,-999.0,80,-99.99,,,0.00,Acu-Link.com,2013-06-29 00:45:00,
2013-06-28 21:00:00,73.0,67.5,29.38,West,270,1.7,-999.0,83,-99.99,,,0.00,Acu-Link.com,2013-06-29 01:00:00,
2013-06-28 21:31:00,71.1,67.7,29.38,SSW,202,3.2,-999.0,89,-99.99,,,0.00,Acu-Link.com,2013-06-29 01:31:00,
2013-06-28 21:46:00,71.2,67.1,29.38,ENE,67,0.0,-999.0,87,-99.99,,,0.00,Acu-Link.com,2013-06-29 01:46:00,
2013-06-28 22:01:00,70.5,67.4,29.39,South,180,0.0,-999.0,90,-99.99,,,0.00,Acu-Link.com,2013-06-29 02:01:00,
2013-06-28 22:16:00,69.8,67.0,29.39,NNE,22,0.0,-999.0,91,-99.99,,,0.00,Acu-Link.com,2013-06-29 02:16:00,
2013-06-28 22:32:00,70.0,67.2,29.39,East,90,0.0,-999.0,91,-99.99,,,0.00,Acu-Link.com,2013-06-29 02:32:00,
2013-06-28 22:47:00,69.6,67.2,29.38,South,180,0.0,-999.0,92,-99.99,,,0.00,Acu-Link.com,2013-06-29 02:47:00,
2013-06-28 23:02:00,68.9,67.1,29.39,ENE,67,0.0,-999.0,94,-99.99,,,0.00,Acu-Link.com,2013-06-29 03:02:00,
2013-06-28 23:18:00,69.1,67.0,29.39,ENE,67,0.0,-999.0,93,-99.99,,,0.00,Acu-Link.com,2013-06-29 03:18:00,
2013-06-28 23:33:00,69.1,67.3,29.40,SW,225,1.7,-999.0,94,-99.99,,,0.00,Acu-Link.com,2013-06-29 03:33:00,
2013-06-28 23:48:00,68.7,67.2,29.40,NW,315,0.0,-999.0,95,-99.99,,,0.00,Acu-Link.com,2013-06-29 03:48:00,